RH
67 65 61 59 64 69 68 75 81 84 77 83 77 77 78 80 77 65 63 54 57 57 55 57 50 47 45 43 47 48 46 44
63 68 66 67 72 71 75 81 85 81 80 76 78 84 83 74 63 65 63 55 56 57 52 55 50 46 49 52 48 50 47 50
68 68 66 70 69 74 77 78 82 77 68 69 69 75 77 61 58 64 57 59 54 57 58 52 51 48 53 54 54 51 48 52
66 69 68 66 68 76 77 77 78 76 72 70 71 77 78 65 58 59 57 59 52 54 57 53 50 44 45 54 55 54 49 55
57 63 66 69 73 78 76 77 77 77 75 73 74 72 69 68 67 62 57 60 57 47 46 49 51 49 52 54 56 66 57 50
56 59 59 62 70 81 80 79 79 78 82 82 83 80 78 76 68 68 60 56 50 46 48 53 54 50 60 63 68 64 57 50
48 52 58 64 77 81 84 87 81 83 86 82 82 80 79 76 72 67 57 51 50 50 46 51 53 57 63 64 77 78 58 54
46 50 58 66 80 83 84 88 89 92 88 88 80 78 72 70 70 77 70 55 49 53 51 53 58 67 71 81 74 62 61 58
43 43 49 60 78 79 79 82 83 87 91 86 83 74 71 69 72 78 67 53 45 50 49 53 56 68 69 64 60 61 66 63
44 43 50 56 73 79 80 74 76 83 88 87 84 78 75 74 72 66 61 51 45 54 56 65 56 55 70 71 57 62 67 70
51 52 60 61 68 71 79 72 71 71 82 84 81 79 75 72 70 70 60 55 47 54 58 53 52 61 52 59 54 59 64 65
54 59 68 69 70 71 76 75 75 79 78 80 80 80 77 77 73 71 62 57 50 51 60 52 61 61 56 58 56 56 63 63
60 65 73 78 78 78 78 80 78 76 79 79 79 76 77 77 74 68 64 53 52 55 56 58 52 56 57 60 63 54 62 60
63 70 72 74 78 79 77 74 72 69 72 72 74 73 74 73 71 67 60 54 57 60 54 60 60 60 56 58 60 56 54 53
60 68 71 71 73 74 73 74 69 68 65 65 69 70 69 68 62 58 56 51 64 60 57 52 52 49 52 67 72 58 58 56
63 66 67 67 67 70 69 71 66 65 60 58 64 61 56 56 58 65 66 64 59 60 57 60 59 62 73 87 63 59 58 58
56 57 62 68 68 67 70 68 65 61 60 59 55 58 53 66 73 74 73 70 68 54 54 63 72 83 95 85 77 60 59 60
62 66 67 66 65 71 70 68 67 64 62 59 63 62 69 76 73 69 69 71 72 80 86 85 91 90 83 82 84 60 59 56
62 61 64 66 64 64 65 61 63 64 64 65 64 61 62 64 67 76 87 88 92 93 89 88 86 66 86 85 84 61 59 58
Wind_Speed
14 14 15 16 15 14 13 11 10 9 7 5 5 4 3 4 5 6 9 8 9 9 7 8 6 6 5 4 5 4 2 0
13 15 16 17 15 15 15 13 12 10 7 7 6 5 5 4 5 8 9 9 10 10 8 7 6 5 5 5 4 3 2 1
13 16 17 18 18 17 16 15 13 12 10 8 4 6 5 5 5 7 9 11 11 9 10 8 7 6 6 5 5 4 2 1
13 16 19 18 19 19 15 14 13 13 12 8 4 6 4 4 7 7 8 10 10 11 10 9 8 6 5 5 6 7 3 2
15 16 17 18 16 13 14 15 15 13 14 13 13 11 10 6 7 7 8 9 10 11 10 10 8 6 7 4 2 2 5 4
19 18 18 18 15 15 15 14 14 14 13 13 10 10 5 6 7 10 8 8 10 10 10 11 10 7 7 9 7 4 3 3
18 17 16 15 13 14 14 13 14 12 12 14 15 14 12 11 10 9 8 8 8 11 10 9 10 9 10 8 6 7 6 4
17 17 17 16 18 17 14 14 11 6 12 13 15 15 15 16 14 10 10 9 9 12 12 10 8 7 7 7 8 7 6 4
19 20 17 18 18 19 19 19 16 20 17 16 13 14 9 8 11 10 10 11 10 11 9 8 9 9 7 8 5 5 6 5
18 16 16 15 16 20 21 21 18 15 16 13 14 13 13 11 14 13 10 12 10 13 11 8 11 10 9 8 6 7 6 6
10 12 12 11 14 15 16 17 19 19 16 14 13 15 14 13 12 15 14 12 14 14 11 11 11 8 10 8 7 6 6 5
7 8 9 11 11 13 15 16 16 14 14 14 13 13 14 12 12 12 14 14 15 15 11 12 10 9 8 6 4 4 7 7
6 6 7 8 9 10 11 11 13 12 11 12 12 11 12 13 13 14 15 15 13 11 10 8 5 3 5 6 5 6 9 10
5 5 5 5 6 7 9 9 9 8 7 9 9 9 11 12 12 14 14 14 12 8 9 8 10 9 7 4 5 10 10 11
4 3 3 4 5 7 7 5 4 6 6 7 8 9 9 10 10 10 12 13 10 11 10 9 8 6 5 2 8 11 11 10
1 2 3 5 5 5 5 8 9 8 8 8 7 7 7 8 8 6 5 6 5 4 10 7 6 4 2 5 10 12 12 12
8 6 4 3 2 1 2 3 4 5 6 5 5 7 7 7 6 6 6 6 5 8 5 5 2 1 5 11 10 10 10 11
11 10 9 8 7 5 5 4 5 5 5 5 7 8 8 7 7 9 8 8 10 6 5 5 2 6 10 11 9 9 10 11
9 8 9 9 10 11 10 10 10 9 9 8 8 9 11 11 11 11 8 7 5 5 2 3 6 9 8 12 11 12 11 12
Wind_Direction
195 193 191 196 199 201 199 201 193 184 172 158 159 148 143 157 174 173 162 149 140 132 126 130 122 112 117 112 86 67 36 51
199 198 198 201 205 208 206 196 189 177 172 174 176 171 164 185 178 170 153 145 146 142 130 130 128 134 120 111 111 142 131 122
201 196 198 204 207 209 207 204 185 189 186 177 177 168 182 171 159 160 159 152 149 142 142 140 139 126 124 144 172 165 153 120
210 199 201 202 208 205 202 200 195 195 187 163 127 115 107 162 170 154 154 149 152 150 150 140 137 139 146 164 180 175 184 175
226 215 207 208 208 197 199 199 196 194 186 186 181 190 182 179 172 157 154 155 156 154 147 144 141 146 154 146 207 232 178 168
218 218 218 213 198 193 194 192 194 194 196 198 194 187 169 145 148 149 159 161 158 153 156 154 155 151 153 157 164 182 171 183
218 215 212 213 197 191 191 185 193 191 201 202 199 187 160 159 158 161 169 166 166 169 166 165 157 153 159 173 166 181 167 152
223 208 201 195 188 189 187 181 178 178 206 205 204 184 171 172 172 168 165 178 186 184 173 168 159 160 164 164 181 171 153 171
226 222 209 197 186 182 187 186 179 173 210 207 200 187 180 185 176 173 185 190 181 169 172 166 162 164 169 192 176 169 168 183
229 227 214 201 185 186 189 193 193 198 202 197 191 192 192 190 188 193 183 184 175 173 174 171 171 180 183 176 180 182 183 194
233 231 221 200 188 191 192 198 200 203 201 196 200 200 197 193 187 193 187 181 177 176 178 180 179 180 183 177 189 176 192 204
228 219 211 199 190 190 190 199 202 199 201 201 200 201 195 190 190 185 186 179 181 181 178 183 180 187 178 189 209 182 211 221
246 212 196 187 191 186 191 195 199 205 201 194 204 194 186 189 192 188 190 185 182 178 182 187 177 161 180 189 205 212 216 221
224 221 217 197 189 189 179 194 194 198 195 203 198 196 196 199 197 198 191 180 179 177 173 172 168 180 189 184 222 237 226 231
203 181 178 170 178 195 187 188 172 168 192 203 200 198 201 206 198 185 178 178 170 178 184 180 178 166 171 193 270 256 247 244
77 169 166 161 190 189 173 161 169 173 179 186 200 180 177 170 158 143 148 162 159 161 163 150 133 135 132 260 266 261 256 252
75 76 81 93 162 215 122 121 150 176 187 187 157 157 152 127 117 118 114 105 110 133 101 74 83 62 304 272 271 279 269 257
73 69 61 52 48 49 68 96 127 132 124 121 119 126 118 106 107 104 101 104 111 99 92 43 304 303 265 277 287 291 278 269
75 75 75 60 62 65 72 73 75 80 82 89 100 108 106 106 105 100 95 106 98 87 178 257 261 261 289 285 290 291 279 270